Regional & State Weather Roundups


287 
ASUS44 KLUB 212210
RWRLUB
WEST TEXAS WEATHER ROUNDUP
NATIONAL WEATHER SERVICE LUBBOCK TX
400 PM CST WED FEB 21 2018
NOTE: "FAIR" INDICATES FEW OR NO CLOUDS BELOW 12,000 FEET WITH NO
SIGNIFICANT WEATHER AND/OR OBSTRUCTIONS TO VISIBILITY.
TXZ004-006>008-010-012-014-016-OKZ002-212300-
TEXAS PANHANDLE/OKLAHOMA PANHANDLE
  
CITY           SKY/WX    TMP DP  RH WIND       PRES   REMARKS
AMARILLO       CLOUDY    31   4  31 NE10      30.25F WCI  22          
BORGER         CLOUDY    29   2  31 N9        30.30S WCI  20          
CANADIAN       CLOUDY    29   4  35 N9        30.33S WCI  20          
DALHART        CLOUDY    23  16  74 E9        30.25F WCI  13          
DUMAS          CLOUDY    29   5  36 E10       30.26F WCI  20          
GUYMON         CLOUDY    28   6  39 NE9       30.31F WCI  19          
HEREFORD       PTSUNNY   30   5  35 NE12      30.24F WCI  21          
PAMPA          CLOUDY    29   4  34 NE14      30.27F WCI  18          
PERRYTON       CLOUDY    27   4  36 N12       30.31S WCI  17          
$$
TXZ026-029-035-045-048-212300-
SOUTHERN PANHANDLE/SOUTH PLAINS/ROLLING PLAINS
  
CITY           SKY/WX    TMP DP  RH WIND       PRES   REMARKS
CHILDRESS      CLOUDY    27  21  78 N15       30.34R WCI  15          
SEMINOLE       CLOUDY    36  20  53 NE12G17   30.23F WCI  28          
LUBBOCK        CLOUDY    31  20  63 N12       30.24F WCI  22          
PLAINVIEW      CLOUDY    29  15  56 NE12      30.24S WCI  20          
SNYDER         MIX PCPN  26  24  95 N13       30.30F WCI  14          
$$
TXZ052-054-060>062-072-078-127-140-154-169-212300-
PERMIAN BASIN/CONCHO VALLEY/BIG COUNTRY/EDWARDS PLATEAU  
  
CITY           SKY/WX    TMP DP  RH WIND       PRES   REMARKS
ABILENE        FRZ RAIN  24  24 100 NW17      30.30R FOG     WCI  11  
BIG SPRING     CLOUDY    29  26  88 N12       30.28F WCI  19          
BROWNWOOD      CLOUDY    32  32 100 NW15      30.26R WCI  22          
MIDLAND        CLOUDY    35  24  64 NE14      30.22F WCI  26          
ODESSA         CLOUDY    35  24  64 NE12      30.22F WCI  27          
SAN ANGELO     CLOUDY    31  26  82 NW17      30.28S HAZE    WCI  19  
SONORA         CLOUDY    32  30  93 N15       30.26S WCI  22          
SWEETWATER     CLOUDY    25  25 100 NW12      30.32S WCI  15          
WINK           CLOUDY    43  21  41 NE7       30.20F                  
$$
TXZ055-058-074-075-080-082-212300-
FAR WEST/SOUTHWEST MOUNTAINS/TRANS PECOS
  
CITY           SKY/WX    TMP DP  RH WIND       PRES   REMARKS
ALPINE         PTSUNNY   38  29  69 E7        30.21F WCI  33          
DRYDEN           N/A     47  29  49 N18G26    30.15F                  
EL PASO        FAIR      61  29  29 SE12      30.01F                  
FORT STOCKTON  CLOUDY    39  27  62 N8        30.21F WCI  33          
GUADALUPE PASS FAIR      41  15  35 NE32      30.09R                  
MARFA            N/A     55  31  39 NE10      30.10F                  
PECOS          FAIR      45  19  36 CALM      30.22F                  
PRESIDIO       FAIR      74  27  17 SE8       30.00F                  
$$
TXZ014-016-019-021>030-083-212300
TEXAS TECH WEST TEXAS MESONET/TEXAS PANHANDLE/NORTHERN SOUTH PLAINS
  
CITY           SKY/WX    TMP DP  RH WIND       PRES   REMARKS
ABERNATHY 5ENE   N/A     30  20  68 N13       30.25F WCI  20          
AMARILLO 9NNE    N/A     29   4  34 N10       30.27F WCI  20          
AMARILLO 7SSE    N/A     31   3  31 NE12      30.26S WCI  21          
AMHERST 1NE      N/A     31   8  37 NE13      30.23F WCI  22          
BOOTLEG 11WNW    N/A     27   5  38 NE8       30.22F WCI  19          
CANADIAN 6E      N/A     26   4  38 N15       30.31S WCI  14          
CAPROCK CYN SP   N/A     27  22  83 N9        30.31R WCI  17          
CHILDRESS 2NNE   N/A     26  22  83 N12       30.33F WCI  16          
CLARENDON 2WSW   N/A     27  17  66 N13       30.28S WCI  16          
CLAUDE 12SW      N/A     29   6  37 NE10      30.26S WCI  20          
DIMMITT 2NE      N/A     30   6  36 N12       30.23S WCI  20          
FLOYDADA 2NNE    N/A     26  22  85 N9        30.26F WCI  17          
FRIONA 2NE       N/A     28   7  41 NE12      30.23F WCI  18          
GOODLETT 3W      N/A     25  22  87 N13       30.33F WCI  14          
HART 3N          N/A     31   8  37 NE13      30.23F WCI  21          
HEREFORD 2NW     N/A     27   3  35 NE10      30.24S WCI  18          
MCLEAN 1E        N/A     26   7  44 N14       30.26S WCI  14          
MEMPHIS 1NE      N/A     29  21  71 N9        30.33R WCI  20          
MULESHOE 2SSW    N/A     31   8  37 NE10      30.22F WCI  22          
OLTON 6S         N/A     32  10  40 NE12      30.23F WCI  23          
PALO DURO SP     N/A     31   4  32 NE7       30.27S WCI  24          
PAMPA 2E         N/A     26   5  39 N13       30.27F WCI  15          
PLAINVIEW 1S     N/A     30  17  59 NE10      30.25S WCI  21          
SILVERTON 7ESE   N/A     27  18  70 N12       30.28R WCI  16          
TULIA 2ENE       N/A     30  10  42 N9        30.25S WCI  22          
TURKEY 2WSW      N/A     28  22  76 N13       30.31R WCI  17          
UMBARGER 3NNE    N/A     29   4  35 NE10      30.25S WCI  19          
$$
TXZ033>036-039>041-045>048-212300
TEXAS TECH WEST TEXAS MESONET/SOUTH PLAINS  
  
CITY           SKY/WX    TMP DP  RH WIND       PRES   REMARKS
AIKEN 3WSW       N/A     29  17  59 NE14      30.27S WCI  19          
ANDREWS 2NE      N/A     33  26  75 NE12      30.23F WCI  24          
ANTON 6SSW       N/A     33  14  46 NE14      30.24F WCI  23          
BROWNFIELD 2S    N/A     33  19  56 NE14      30.23F WCI  24          
DENVR CTY 7WNW   N/A     36  13  38 NE9       30.20S WCI  29          
GAIL 2ESE        N/A     27  24  89 N8        30.27F WCI  19          
LAMESA 2SE       N/A     29  25  84 N10       30.25F WCI  19          
LUBBOCK 3WNW     N/A     31  19  61 N9        30.25F WCI  23          
MORTON 1ENE      N/A     34  10  36 NE12      30.22S WCI  25          
ODONNELL 1N      N/A     29  24  80 NE14      30.24F WCI  19          
PLAINS 3N        N/A     35  11  37 NE10      30.21F WCI  27          
RALLS 1SE        N/A     28  21  77 N12       30.26F WCI  18          
REESE CENTER     N/A     31  19  60 NE13      30.24F WCI  21          
SEAGRAVES 1SW    N/A     35  18  50 NE10      30.22F WCI  27          
SEMINOLE 2NNE    N/A     35  19  52 NE12      30.22F WCI  27          
SLATON 2NE       N/A     30  22  70 N9        30.25F WCI  22          
SNYDER 3E        N/A     25  24  97 N12       30.29S WCI  14          
SUNDOWN 8SW      N/A     34  13  42 NE10      30.21F WCI  26          
TAHOKA 3NNE      N/A     32  21  64 N12       30.24F WCI  23          
WOLFFORTH 6SSW   N/A     31  21  65 NE13      30.24F WCI  21          
$$
TXZ031-032-036>038-042>044-212300-
TEXAS TECH WEST TEXAS MESONET/ROLLING PLAINS 
  
CITY           SKY/WX    TMP DP  RH WIND       PRES   REMARKS
ASPERMONT 3NE    N/A     25  22  89 NW14      30.34S WCI  13          
FLUVANNA 3WNW    N/A     25  23  93 N8        30.27F WCI  16          
GRAHAM 5SSW      N/A     26  24  90 N12       30.26F WCI  16          
GUTHRIE 10WSW    N/A     25  22  89 N8        30.33R WCI  16          
HASKELL 1NW      N/A     24  24  99 NW17      30.32R WCI  11          
JAYTON 1SSE      N/A     24  23  93 N8        30.34R WCI  16          
KNOX CITY 3NW    N/A     26  22  83 N10       30.36S WCI  16          
LK A HENRY 1NW   N/A     27  23  85 N6        30.31S WCI  21          
NORTHFIELD 1S    N/A     28  19  70 N8        30.33S WCI  20          
ODELL 4ENE       N/A     25  24  94 N12       30.35F WCI  14          
PADUCAH 10SW     N/A     24  22  91 N12       30.33R WCI  13          
POST 1NE         N/A     27  24  87 N8        30.28S WCI  19          
RRING SPRGS 3N   N/A     25  23  90 N12       30.30R WCI  14          
SEYMOUR 3NW      N/A     26  23  91 N18       30.30F WCI  12          
SPUR 1W          N/A     26  24  93 N8        30.31R WCI  17          
WEINERT 2NNE     N/A     25  22  88 NW14      30.33R WCI  13          
WHITE RVR 6NE    N/A     26  22  87 N8        30.28F WCI  17          
$$
TXZ052-054-060>062-072-078-127-140-154-169-212300-
TEXAS TECH WEST TEXAS MESONET/PERMIAN BASIN/
CONCHO VALLEY/BIG COUNTRY/EDWARDS PLATEAU
  
CITY           SKY/WX    TMP DP  RH WIND       PRES   REMARKS
COYANOSA 2N      N/A     41  25  53 NE6       30.24F                  
JUNCTION 1SSW    N/A     37  35  92 N8        30.23S WCI  31          
MERTZON 3NNE     N/A     29  27  91 N7        30.28F WCI  22          
SAN ANGELO 7NW   N/A     29  26  88 N1        30.29F                  
STRLNG CT 4WSW   N/A     27  25  91 N7        30.29F WCI  20          
ST LAWRNCE 5SW   N/A     29  26  89 N13       30.24F WCI  19          
SWEETWATR 11SW   N/A     24  23  96 N9        30.30S WCI  14          
WALL 1E          N/A     31  30  96 N1        30.30S                  
$$
TXZ055-058-074-075-080-082-212300-
TEXAS TECH WEST TEXAS MESONET/FAR WEST/SOUTHWEST MOUNTAINS/TRANS PECOS
  
CITY           SKY/WX    TMP DP  RH WIND       PRES   REMARKS
PRSMN GAP BBNP   N/A     54  35  49 NE23      30.09F                  
GUADLPE MTN NP   N/A     40  13  33 NE14      30.14S WCI  32          
$$